#timestamp,LO_Frequency,Hit,StdDev 
1567746015.2,286046998.5,N
1567746035.9,286046998.3,N
1567746055.7,286046998.4,N
1567746075.6,286047002.2,N
1567746095.4,286047002.6,N
1567746115.2,286046998.9,N
1567746135.1,286047001.2,N
1567746136.0,286047001.2,N
1567746155.8,286047002.4,N
1567746175.7,286047001.5,N
1567746195.5,286047002.1,N
1567746215.3,286047002.2,N
1567746235.2,286047000.0,N
1567746255.0,286047002.7,N
1567746255.9,286047002.7,N
1567746275.7,286047003.1,N
1567746295.6,286047000.2,N
1567746315.4,286046998.4,N
1567746335.3,286046997.4,N
1567746355.1,286046994.4,Y
1567746375.8,286046992.1,P
1567746395.7,286046993.3,N
1567746415.5,286046995.4,N
1567746435.3,286046998.9,N
1567746455.2,286046998.8,N
1567746475.0,286046998.6,N
1567746475.9,286046998.6,N
1567746495.8,286046998.7,N
1567746515.6,286046997.8,N
1567746535.4,286046995.6,N
1567746555.3,286046998.0,N
1567746575.1,286046995.5,N
1567746595.8,286046997.1,N
1567746615.7,286046999.1,N
1567746635.5,286046999.6,N
1567746655.4,286046997.4,N
1567746675.2,286046997.2,N
1567746695.0,286046997.8,N
1567746695.9,286046997.8,N
1567746715.8,286046997.8,N
1567746735.6,286046997.0,N
1567746755.4,286046995.3,N
1567746775.3,286046997.3,N
1567746795.1,286046996.9,N
1567746815.9,286046997.5,N
1567746835.7,286046996.7,N
1567746855.5,286046997.6,N
1567746875.4,286046997.0,N
1567746895.2,286046995.4,N
1567746915.0,286046995.3,N
1567746916.0,286046995.3,N
1567746935.8,286046991.8,Y
1567746955.6,286046993.5,P
1567746975.5,286046995.0,N
1567746995.3,286046995.2,P
1567747015.1,286046997.6,N
1567747035.9,286046999.0,N
1567747055.7,286046998.2,N
1567747075.6,286047002.7,N
1567747095.4,286047003.0,N
1567747115.2,286047001.3,N
1567747135.1,286047000.0,N
1567747136.0,286047000.0,N
1567747155.8,286047002.2,N
1567747175.6,286047000.4,N
1567747195.5,286047001.3,N
1567747215.3,286047004.3,N
1567747235.2,286047003.9,N
1567747255.9,286047002.0,N
1567747275.7,286046999.8,N
1567747295.6,286046998.6,N
1567747315.4,286047000.0,N
1567747335.2,286047000.0,N
1567747355.1,286047001.0,N
1567747356.0,286047001.0,N
1567747375.8,286046999.5,N
1567747395.7,286047000.7,N
1567747415.5,286046996.7,N
1567747435.3,286046995.3,N
1567747455.2,286046994.1,N
1567747475.0,286046994.0,N
1567747475.9,286046994.0,N
1567747495.8,286046995.2,N
1567747515.6,286046997.6,N
1567747535.4,286046997.6,N
1567747555.3,286046994.9,N
1567747575.1,286046995.8,N
1567747595.8,286046997.0,N
1567747615.7,286046997.9,N
1567747635.5,286046996.8,N
1567747655.3,286046997.3,N
1567747675.2,286046996.5,N
1567747695.0,286047001.0,N
1567747695.9,286047001.0,N
1567747715.8,286047002.7,N
1567747735.6,286047000.1,N
1567747755.4,286046999.8,N
1567747775.3,286047000.7,N
1567747795.1,286047000.9,N
1567747815.9,286046998.5,N
1567747835.7,286047000.0,N
1567747855.5,286047002.7,N
1567747875.4,286047001.3,N
1567747895.2,286047002.1,N
1567747915.0,286047000.5,N
1567747915.9,286047000.5,N
1567747935.8,286046999.0,N
1567747955.6,286046997.4,N
1567747975.5,286046995.1,N
1567747995.3,286046997.5,N
1567748015.1,286046995.9,N
1567748035.9,286046996.0,N
1567748055.7,286046996.9,N
1567748075.5,286046999.0,N
1567748095.4,286047001.2,N
1567748115.2,286046999.1,N
1567748135.1,286046999.9,N
1567748136.0,286046999.9,N
1567748155.8,286046998.7,N
1567748175.6,286046998.7,N
1567748195.5,286046999.9,N
1567748215.3,286047000.6,N
1567748235.1,286047000.6,N
1567748255.9,286046998.2,N
1567748275.7,286047001.0,N
1567748295.6,286046999.1,N
1567748315.4,286046997.3,N
1567748335.2,286046997.0,N
1567748355.1,286046999.2,N
1567748356.0,286046999.2,N
1567748375.8,286046998.5,N
1567748395.6,286046998.2,N
1567748415.5,286047000.6,N
1567748435.3,286047002.3,N
1567748455.2,286047002.8,N
1567748475.9,286046998.6,N
1567748495.7,286046998.9,N
1567748515.6,286046996.5,N
1567748535.4,286046993.6,Y
1567748555.2,286046995.7,P
1567748575.1,286046996.2,N
1567748576.0,286046996.2,N
1567748595.8,286046996.7,N
1567748615.7,286046999.5,N
1567748635.5,286046999.6,N
1567748655.3,286046999.4,N
1567748675.2,286046999.2,N
1567748695.0,286046998.9,N
1567748695.9,286046998.9,N
1567748715.7,286046996.8,N
1567748735.6,286046996.6,N
1567748755.4,286046999.5,N
1567748775.3,286046997.5,N
1567748795.1,286046996.2,N
1567748796.0,286046996.2,N
1567748815.8,286046995.1,Y
1567748835.7,286047002.6,P
1567748855.5,286047004.3,N
1567748875.3,286047004.1,N
1567748895.2,286047005.3,N
1567748915.0,286047007.5,N
1567748915.9,286047007.5,N
1567748935.8,286047003.2,N
1567748955.6,286047003.1,N
1567748975.4,286047005.2,N
1567748995.3,286047003.7,N
1567749015.1,286047003.4,N
1567749035.9,286047004.6,N
1567749055.7,286047006.9,N
1567749075.5,286047006.9,N
1567749095.4,286047004.5,N
1567749115.2,286047002.9,N
1567749135.0,286047003.7,N
1567749135.9,286047003.7,N
1567749155.8,286047004.1,N
1567749175.6,286047002.3,N
1567749195.5,286047002.5,N
1567749215.3,286047002.2,N
1567749235.1,286046999.7,N
1567749255.9,286047000.9,N
1567749275.7,286046999.0,N
1567749295.5,286047001.1,N
1567749315.4,286047000.0,N
1567749335.2,286046999.9,N
1567749355.1,286047003.2,N
1567749356.0,286047003.2,N
1567749375.8,286047003.8,N
1567749395.6,286047004.1,N
1567749415.5,286047005.8,N
1567749435.3,286047003.2,N
1567749455.1,286047002.9,N
1567749475.9,286047005.6,N
1567749495.7,286047005.5,N
1567749515.6,286047004.8,N
1567749535.4,286047005.3,N
1567749555.2,286047007.1,Y
1567749575.1,286047011.9,P
1567749576.0,286047003.2,N
1567749595.8,286047003.6,N
